Tracking 21082 objects as of 5-Aug-2020
HD Live streaming from Space Station
objects crossing your sky now

DELTA 1 DEB

Track DELTA 1 DEB now!
10-day predictions


NORAD ID: 12211
Int'l Code: 1978-026BC
Perigee: 792.8 km
Apogee: 967.4 km
Inclination: 99.4 °
Period: 102.4 minutes
Semi major axis: 7251 km
RCS: 0.0111 m2 (small)
Launch date: March 5, 1978
Source: United States (US)
Launch site: AIR FORCE WESTERN TEST RANGE (AFWTR)

Note: This is SATELLITE DEBRIS
aabbcc
Your satellite tracking list
Your tracking list is empty




NASA's NSSDC Master Catalog

Two Line Element Set (TLE):
1 12211U 78026BC  20217.49762602  .00000020  00000-0  39185-4 0  9990
2 12211  99.3625  44.7892 0120411 263.2653  95.4799 14.06046791 18553
Source of the keplerian elements: AFSPC